Location: Splawn
(30.9202°N, 96.9858°W)
Time: 02:18:30
(UTC+00:00)

Transit 2A Rocket - Pass Details

Date: 06 March 2020
Orbit: 588 x 915 km, 66.7° (Epoch: 06 April)

Event Time Altitude Azimuth Distance (km) Brightness Sun altitude
Rises 23:44:56 0° 160° (SSE) 2,803 7.8 8.8°
Reaches altitude 10° 23:48:24 10° 129° (SE) 1,907 6.7 8.1°
Maximum altitude 23:50:09 12° 105° (ESE) 1,768 6.4 7.7°
Drops below altitude 10° 23:51:54 10° 80° (E) 1,930 6.5 7.3°
Sets 23:55:27 0° 51° (NE) 2,876 7.4 6.6°
